Вернуться в каталог

STARLINK-3962

АктивенСвязьVLEO
NORAD 52708·PAYLOAD·🇺🇸 United States

Запущен May 18, 2022 с Cape Canaveral Space Force Station

Loading…

Ближайшие Пролёты (ближайшие 24 часа)

TLE

СвежийSource: CelesTrak SupGP

Эпоха: Sep 14, 2026, 21:03 UTC

1 52708C 22053BE  26257.87756944 -.00027607  00000+0 -78979-3 0  2579
2 52708  53.1595 352.1859 0001280  81.1756 276.1250 15.35415578    12

Отслеживайте STARLINK-3962 в реальном времени с AllMySat

Download on the App Store